Location: Waco, TX
(31.5480°N, 97.1670°W)
Time: 13:50:46

ISS - Pass Details

Date: 13 March 2018
Orbit: 403 x 406 km, 51.6° (Epoch: 21 March)

Event Time Altitude Azimuth Distance (km) Brightness Sun altitude
Rises 01:24:27 0° 235° (SW) 2,312 - -61.2°
Reaches altitude 10° 01:26:34 10° 241° (WSW) 1,456 - -61.2°
Maximum altitude 01:29:44 48° 317° (NW) 537 - -61.3°
Drops below altitude 10° 01:32:56 10° 34° (NNE) 1,463 - -61.3°
Sets 01:35:04 0° 40° (NE) 2,325 - -61.4°
